| time (UTC) | temp F | wind direction | speed MPH | gust MPH | rain 1hr in | rain 24hr in | rain mn in | humidity % | barometer mb |
| 20260505011658 | 71 | 201 | 5.0 | 8.0 | 0.00 | 0.00 | 0.00 | 59 | 1014.8 |
| 20260505011156 | 71 | 211 | 4.0 | 6.0 | 0.00 | 0.00 | 0.00 | 59 | 1014.9 |
| 20260505010651 | 71 | 145 | 3.0 | 4.0 | 0.00 | 0.00 | 0.00 | 58 | 1014.7 |
| 20260505010148 | 71 | 151 | 3.0 | 8.0 | 0.00 | 0.00 | 0.00 | 58 | 1014.8 |
| 20260505005644 | 71 | 203 | 5.0 | 6.0 | 0.00 | 0.00 | 0.00 | 57 | 1014.8 |
| 20260505005141 | 71 | 146 | 2.0 | 3.0 | 0.00 | 0.00 | 0.00 | 57 | 1014.9 |
| 20260505004638 | 71 | 151 | 5.0 | 7.0 | 0.00 | 0.00 | 0.00 | 57 | 1015.0 |
| 20260505004135 | 72 | 202 | 2.0 | 4.0 | 0.00 | 0.00 | 0.00 | 57 | 1015.1 |
| 20260505003632 | 72 | 162 | 6.0 | 9.0 | 0.00 | 0.00 | 0.00 | 56 | 1015.1 |
| 20260505003130 | 72 | 251 | 4.0 | 6.0 | 0.00 | 0.00 | 0.00 | 56 | 1015.0 |
| 20260505002626 | 72 | 138 | 4.0 | 4.0 | 0.00 | 0.00 | 0.00 | 56 | 1015.5 |
| 20260505002124 | 72 | 172 | 6.0 | 8.0 | 0.00 | 0.00 | 0.00 | 55 | 1015.0 |
| 20260505001621 | 72 | 202 | 4.0 | 6.0 | 0.00 | 0.00 | 0.00 | 55 | 1015.2 |
| 20260505001118 | 72 | 188 | 4.0 | 7.0 | 0.00 | 0.00 | 0.00 | 54 | 1015.3 |
| 20260505000615 | 72 | 190 | 5.0 | 9.0 | 0.00 | 0.00 | 0.00 | 54 | 1015.5 |
| 20260505000113 | 73 | 205 | 4.0 | 9.0 | 0.00 | 0.00 | 0.00 | 54 | 1015.4 |
| 20260504235609 | 73 | 171 | 2.0 | 6.0 | 0.00 | 0.00 | 0.00 | 54 | 1015.5 |
| 20260504235106 | 73 | 211 | 5.0 | 8.0 | 0.00 | 0.00 | 0.00 | 53 | 1015.4 |
| 20260504234603 | 73 | 224 | 5.0 | 9.0 | 0.00 | 0.00 | 0.00 | 52 | 1015.5 |
| 20260504234100 | 73 | 183 | 5.0 | 9.0 | 0.00 | 0.00 | 0.00 | 52 | 1015.6 |
| 20260504233555 | 73 | 202 | 3.0 | 8.0 | 0.00 | 0.00 | 0.00 | 52 | 1015.7 |
| 20260504233052 | 73 | 173 | 1.0 | 7.0 | 0.00 | 0.00 | 0.00 | 51 | 1015.7 |
| 20260504232549 | 74 | 201 | 8.0 | 11.0 | 0.00 | 0.00 | 0.00 | 50 | 1015.7 |
| 20260504232047 | 74 | 189 | 3.0 | 9.0 | 0.00 | 0.00 | 0.00 | 50 | 1015.6 |
| 20260504231543 | 74 | 226 | 4.0 | 9.0 | 0.00 | 0.00 | 0.00 | 49 | 1015.8 |
| 20260504231039 | 75 | 189 | 3.0 | 9.0 | 0.00 | 0.00 | 0.00 | 49 | 1015.9 |
| 20260504230536 | 75 | 194 | 8.0 | 9.0 | 0.00 | 0.00 | 0.00 | 48 | 1015.7 |
| 20260504230035 | 75 | 185 | 7.0 | 8.0 | 0.00 | 0.00 | 0.00 | 48 | 1015.8 |
| 20260504225532 | 75 | 175 | 8.0 | 13.0 | 0.00 | 0.00 | 0.00 | 48 | 1015.8 |
| 20260504225029 | 75 | 232 | 7.0 | 9.0 | 0.00 | 0.00 | 0.00 | 47 | 1015.9 |
| 20260504224525 | 75 | 139 | 4.0 | 10.0 | 0.00 | 0.00 | 0.00 | 46 | 1016.0 |
| 20260504224022 | 75 | 210 | 5.0 | 8.0 | 0.00 | 0.00 | 0.00 | 46 | 1016.0 |
| 20260504223519 | 76 | 179 | 6.0 | 10.0 | 0.00 | 0.00 | 0.00 | 45 | 1016.0 |
| 20260504223015 | 76 | 187 | 8.0 | 10.0 | 0.00 | 0.00 | 0.00 | 45 | 1016.0 |
| 20260504222512 | 75 | 169 | 6.0 | 10.0 | 0.00 | 0.00 | 0.00 | 44 | 1016.2 |
| 20260504222010 | 76 | 244 | 5.0 | 10.0 | 0.00 | 0.00 | 0.00 | 45 | 1016.0 |
| 20260504221507 | 76 | 173 | 9.0 | 11.0 | 0.00 | 0.00 | 0.00 | 43 | 1016.0 |
| 20260504221003 | 76 | 208 | 9.0 | 11.0 | 0.00 | 0.00 | 0.00 | 44 | 1016.1 |
| 20260504220500 | 77 | 202 | 8.0 | 10.0 | 0.00 | 0.00 | 0.00 | 43 | 1016.3 |
| 20260504215956 | 76 | 206 | 5.0 | 10.0 | 0.00 | 0.00 | 0.00 | 44 | 1016.2 |
| 20260504215453 | 77 | 201 | 12.0 | 15.0 | 0.00 | 0.00 | 0.00 | 43 | 1016.1 |
| 20260504214950 | 77 | 119 | 4.0 | 8.0 | 0.00 | 0.00 | 0.00 | 44 | 1016.3 |
| 20260504214446 | 76 | 252 | 4.0 | 10.0 | 0.00 | 0.00 | 0.00 | 44 | 1016.1 |
| 20260504213943 | 76 | 236 | 3.0 | 9.0 | 0.00 | 0.00 | 0.00 | 43 | 1016.1 |
| 20260504213439 | 77 | 207 | 7.0 | 10.0 | 0.00 | 0.00 | 0.00 | 43 | 1016.3 |
| 20260504212937 | 76 | 199 | 2.0 | 9.0 | 0.00 | 0.00 | 0.00 | 43 | 1016.3 |
| 20260504212432 | 76 | 190 | 10.0 | 13.0 | 0.00 | 0.00 | 0.00 | 43 | 1016.2 |
| 20260504211931 | 76 | 193 | 6.0 | 8.0 | 0.00 | 0.00 | 0.00 | 43 | 1016.6 |
| 20260504211426 | 76 | 194 | 6.0 | 10.0 | 0.00 | 0.00 | 0.00 | 42 | 1016.5 |
| 20260504210924 | 77 | 148 | 6.0 | 8.0 | 0.00 | 0.00 | 0.00 | 41 | 1016.2 |
| 20260504210421 | 77 | 221 | 4.0 | 8.0 | 0.00 | 0.00 | 0.00 | 41 | 1016.2 |
| 20260504205918 | 78 | 179 | 5.0 | 9.0 | 0.00 | 0.00 | 0.00 | 39 | 1016.2 |
| 20260504205416 | 77 | 173 | 8.0 | 10.0 | 0.00 | 0.00 | 0.00 | 40 | 1016.3 |
| 20260504204914 | 77 | 160 | 5.0 | 8.0 | 0.00 | 0.00 | 0.00 | 39 | 1016.6 |
| 20260504204411 | 77 | 203 | 4.0 | 15.0 | 0.00 | 0.00 | 0.00 | 39 | 1016.5 |
| 20260504203911 | 77 | 212 | 6.0 | 8.0 | 0.00 | 0.00 | 0.00 | 40 | 1016.5 |
| 20260504203408 | 77 | 205 | 1.0 | 4.0 | 0.00 | 0.00 | 0.00 | 41 | 1016.7 |
| 20260504202903 | 78 | 180 | 9.0 | 11.0 | 0.00 | 0.00 | 0.00 | 38 | 1016.9 |
| 20260504202400 | 78 | 215 | 4.0 | 10.0 | 0.00 | 0.00 | 0.00 | 38 | 1017.0 |
| 20260504201857 | 77 | 161 | 6.0 | 14.0 | 0.00 | 0.00 | 0.00 | 41 | 1017.0 |
| 20260504201354 | 77 | 185 | 5.0 | 8.0 | 0.00 | 0.00 | 0.00 | 39 | 1017.0 |
| 20260504200852 | 76 | 180 | 3.0 | 9.0 | 0.00 | 0.00 | 0.00 | 40 | 1017.0 |
| 20260504200348 | 78 | 213 | 4.0 | 9.0 | 0.00 | 0.00 | 0.00 | 41 | 1017.3 |
| 20260504195845 | 77 | 200 | 3.0 | 9.0 | 0.00 | 0.00 | 0.00 | 39 | 1017.4 |
| 20260504195340 | 77 | 229 | 4.0 | 7.0 | 0.00 | 0.00 | 0.00 | 38 | 1017.8 |
| 20260504194837 | 77 | 161 | 5.0 | 9.0 | 0.00 | 0.00 | 0.00 | 39 | 1017.5 |
| 20260504194333 | 77 | 204 | 4.0 | 8.0 | 0.00 | 0.00 | 0.00 | 37 | 1017.6 |
| 20260504193829 | 77 | 154 | 6.0 | 8.0 | 0.00 | 0.00 | 0.00 | 38 | 1017.7 |
| 20260504193327 | 77 | 207 | 5.0 | 8.0 | 0.00 | 0.00 | 0.00 | 39 | 1017.5 |
| 20260504192826 | 77 | 268 | 3.0 | 6.0 | 0.00 | 0.00 | 0.00 | 39 | 1017.6 |
| 20260504192323 | 77 | 207 | 8.0 | 13.0 | 0.00 | 0.00 | 0.00 | 39 | 1017.8 |
| 20260504191821 | 77 | 171 | 3.0 | 8.0 | 0.00 | 0.00 | 0.00 | 40 | 1018.0 |
| 20260504191319 | 77 | 263 | 7.0 | 9.0 | 0.00 | 0.00 | 0.00 | 40 | 1017.7 |
| 20260504190814 | 78 | 170 | 3.0 | 9.0 | 0.00 | 0.00 | 0.00 | 39 | 1017.8 |
| 20260504190310 | 78 | 241 | 3.0 | 7.0 | 0.00 | 0.00 | 0.00 | 39 | 1017.9 |
| 20260504185807 | 77 | 213 | 2.0 | 8.0 | 0.00 | 0.00 | 0.00 | 41 | 1017.9 |
| 20260504185305 | 78 | 157 | 5.0 | 8.0 | 0.00 | 0.00 | 0.00 | 41 | 1018.0 |
| 20260504184800 | 77 | 157 | 7.0 | 9.0 | 0.00 | 0.00 | 0.00 | 41 | 1018.2 |
| 20260504184256 | 76 | 254 | 9.0 | 13.0 | 0.00 | 0.00 | 0.00 | 41 | 1018.3 |
| 20260504183752 | 77 | 249 | 6.0 | 9.0 | 0.00 | 0.00 | 0.00 | 41 | 1018.3 |
| 20260504183249 | 77 | 213 | 4.0 | 13.0 | 0.00 | 0.00 | 0.00 | 42 | 1018.0 |
| 20260504182747 | 77 | 267 | 6.0 | 10.0 | 0.00 | 0.00 | 0.00 | 40 | 1018.2 |
| 20260504182244 | 76 | 122 | 8.0 | 11.0 | 0.00 | 0.00 | 0.00 | 43 | 1018.1 |
| 20260504181741 | 77 | 220 | 4.0 | 9.0 | 0.00 | 0.00 | 0.00 | 43 | 1018.1 |
| 20260504181238 | 76 | 184 | 5.0 | 10.0 | 0.00 | 0.00 | 0.00 | 42 | 1018.3 |
| 20260504180738 | 76 | 192 | 4.0 | 8.0 | 0.00 | 0.00 | 0.00 | 43 | 1018.1 |
| 20260504180236 | 77 | 189 | 1.0 | 9.0 | 0.00 | 0.00 | 0.00 | 43 | 1018.2 |
| 20260504175733 | 76 | 197 | 5.0 | 11.0 | 0.00 | 0.00 | 0.00 | 42 | 1018.4 |
| 20260504175230 | 75 | 255 | 7.0 | 13.0 | 0.00 | 0.00 | 0.00 | 44 | 1018.3 |
| 20260504174728 | 76 | 202 | 10.0 | 13.0 | 0.00 | 0.00 | 0.00 | 44 | 1018.4 |
| 20260504174225 | 75 | 267 | 2.0 | 6.0 | 0.00 | 0.00 | 0.00 | 45 | 1018.5 |
| 20260504173721 | 76 | 240 | 6.0 | 9.0 | 0.00 | 0.00 | 0.00 | 45 | 1018.6 |
| 20260504173219 | 76 | 260 | 3.0 | 7.0 | 0.00 | 0.00 | 0.00 | 44 | 1018.3 |
| 20260504172715 | 77 | 193 | 4.0 | 13.0 | 0.00 | 0.00 | 0.00 | 45 | 1018.3 |
| 20260504172212 | 76 | 134 | 4.0 | 7.0 | 0.00 | 0.00 | 0.00 | 44 | 1018.2 |
| 20260504171708 | 77 | 171 | 5.0 | 11.0 | 0.00 | 0.00 | 0.00 | 45 | 1018.2 |
| 20260504171206 | 77 | 145 | 5.0 | 9.0 | 0.00 | 0.00 | 0.00 | 44 | 1018.5 |
| 20260504170702 | 77 | 161 | 9.0 | 10.0 | 0.00 | 0.00 | 0.00 | 44 | 1018.3 |
| 20260504170200 | 76 | 216 | 4.0 | 11.0 | 0.00 | 0.00 | 0.00 | 45 | 1018.2 |
| 20260504160118 | 75 | 130 | 6.0 | 10.0 | 0.00 | 0.00 | 0.00 | 42 | 1019.0 |
| 20260504151045 | 74 | 85 | 3.0 | 7.0 | 0.00 | 0.00 | 0.00 | 47 | 1019.2 |
| 20260504150542 | 74 | 138 | 2.0 | 6.0 | 0.00 | 0.00 | 0.00 | 46 | 1019.0 |
| 20260504141008 | 74 | 106 | 1.0 | 4.0 | 0.00 | 0.00 | 0.00 | 51 | 1018.9 |
| 20260504140505 | 75 | 129 | 1.0 | 2.0 | 0.00 | 0.00 | 0.00 | 50 | 1019.0 |
| 20260504130429 | 67 | 237 | 0.0 | 1.0 | 0.00 | 0.00 | 0.00 | 66 | 1019.1 |
| 20260504110316 | 55 | 255 | 0.0 | 0.0 | 0.00 | 0.00 | 0.00 | 89 | 1018.2 |
| 20260504100234 | 59 | 223 | 0.0 | 0.0 | 0.00 | 0.00 | 0.00 | 81 | 1018.5 |
| 20260504081633 | 58 | 279 | 0.0 | 0.0 | 0.00 | 0.00 | 0.00 | 82 | 1018.3 |
| 20260504081129 | 58 | 226 | 0.0 | 0.0 | 0.00 | 0.00 | 0.00 | 82 | 1018.5 |
| 20260504080626 | 58 | 248 | 0.0 | 0.0 | 0.00 | 0.00 | 0.00 | 82 | 1018.6 |
| 20260504080122 | 58 | 268 | 0.0 | 0.0 | 0.00 | 0.00 | 0.00 | 81 | 1018.5 |
| 20260504050439 | 64 | 257 | 2.0 | 3.0 | 0.00 | 0.00 | 0.00 | 67 | 1020.1 |
| 20260504045936 | 64 | 266 | 1.0 | 2.0 | 0.00 | 0.00 | 0.00 | 67 | 1020.2 |
| 20260504045431 | 64 | 246 | 2.0 | 3.0 | 0.00 | 0.00 | 0.00 | 67 | 1020.3 |
| 20260504044927 | 64 | 260 | 1.0 | 2.0 | 0.00 | 0.00 | 0.00 | 67 | 1020.3 |
| 20260504044426 | 64 | 236 | 1.0 | 1.0 | 0.00 | 0.00 | 0.00 | 67 | 1020.2 |
| 20260504043923 | 64 | 245 | 0.0 | 0.0 | 0.00 | 0.00 | 0.00 | 67 | 1020.3 |
| 20260504043420 | 64 | 235 | 0.0 | 1.0 | 0.00 | 0.00 | 0.00 | 67 | 1020.6 |
| 20260504042917 | 64 | 247 | 2.0 | 3.0 | 0.00 | 0.00 | 0.00 | 66 | 1020.4 |
| 20260504042414 | 64 | 272 | 2.0 | 2.0 | 0.00 | 0.00 | 0.00 | 66 | 1020.2 |
| 20260504041910 | 64 | 253 | 1.0 | 3.0 | 0.00 | 0.00 | 0.00 | 66 | 1020.5 |
| 20260504041406 | 64 | 236 | 2.0 | 4.0 | 0.00 | 0.00 | 0.00 | 66 | 1020.6 |
| 20260504040902 | 65 | 253 | 2.0 | 2.0 | 0.00 | 0.00 | 0.00 | 66 | 1020.4 |
| 20260504040400 | 65 | 260 | 2.0 | 6.0 | 0.00 | 0.00 | 0.00 | 66 | 1020.4 |
| 20260504035855 | 65 | 224 | 2.0 | 6.0 | 0.00 | 0.00 | 0.00 | 66 | 1020.5 |
| 20260504035353 | 65 | 267 | 5.0 | 6.0 | 0.00 | 0.00 | 0.00 | 66 | 1020.3 |
| 20260504034850 | 66 | 253 | 1.0 | 3.0 | 0.00 | 0.00 | 0.00 | 65 | 1020.3 |
| 20260504034347 | 66 | 282 | 0.0 | 2.0 | 0.00 | 0.00 | 0.00 | 65 | 1020.4 |
| 20260504033844 | 66 | 234 | 0.0 | 2.0 | 0.00 | 0.00 | 0.00 | 64 | 1020.2 |
| 20260504033342 | 66 | 229 | 2.0 | 4.0 | 0.00 | 0.00 | 0.00 | 63 | 1020.4 |
| 20260504032839 | 66 | 223 | 1.0 | 1.0 | 0.00 | 0.00 | 0.00 | 64 | 1020.4 |
| 20260504032336 | 65 | 202 | 2.0 | 2.0 | 0.00 | 0.00 | 0.00 | 65 | 1020.4 |
| 20260504031833 | 65 | 243 | 0.0 | 0.0 | 0.00 | 0.00 | 0.00 | 65 | 1020.4 |
| 20260504031330 | 66 | 249 | 0.0 | 0.0 | 0.00 | 0.00 | 0.00 | 63 | 1020.1 |
| 20260504030826 | 66 | 219 | 1.0 | 1.0 | 0.00 | 0.00 | 0.00 | 62 | 1020.2 |
| 20260504030324 | 66 | 155 | 2.0 | 2.0 | 0.00 | 0.00 | 0.00 | 61 | 1020.2 |
| 20260504025820 | 67 | 141 | 1.0 | 2.0 | 0.00 | 0.00 | 0.00 | 60 | 1020.2 |
| 20260504025317 | 67 | 214 | 1.0 | 2.0 | 0.00 | 0.00 | 0.00 | 60 | 1020.1 |
| 20260504024813 | 67 | 218 | 0.0 | 2.0 | 0.00 | 0.00 | 0.00 | 59 | 1020.1 |
| 20260504024310 | 67 | 231 | 0.0 | 1.0 | 0.00 | 0.00 | 0.00 | 57 | 1020.1 |
| 20260504023807 | 67 | 234 | 0.0 | 1.0 | 0.00 | 0.00 | 0.00 | 57 | 1019.8 |
| 20260504023303 | 68 | 216 | 0.0 | 2.0 | 0.00 | 0.00 | 0.00 | 56 | 1019.9 |
| 20260504022759 | 68 | 221 | 0.0 | 0.0 | 0.00 | 0.00 | 0.00 | 55 | 1019.8 |
| 20260504022255 | 68 | 234 | 0.0 | 1.0 | 0.00 | 0.00 | 0.00 | 55 | 1019.6 |
| 20260504021752 | 68 | 197 | 1.0 | 2.0 | 0.00 | 0.00 | 0.00 | 54 | 1019.7 |
| 20260504021250 | 68 | 248 | 0.0 | 0.0 | 0.00 | 0.00 | 0.00 | 54 | 1019.8 |
| 20260504020747 | 68 | 266 | 0.0 | 0.0 | 0.00 | 0.00 | 0.00 | 54 | 1019.9 |
| 20260504020243 | 68 | 251 | 0.0 | 0.0 | 0.00 | 0.00 | 0.00 | 53 | 1019.8 |
| 20260504015739 | 68 | 255 | 0.0 | 2.0 | 0.00 | 0.00 | 0.00 | 53 | 1019.7 |
| 20260504015236 | 68 | 265 | 0.0 | 0.0 | 0.00 | 0.00 | 0.00 | 54 | 1019.6 |
| 20260504014732 | 68 | 279 | 0.0 | 0.0 | 0.00 | 0.00 | 0.00 | 52 | 1019.6 |
| 20260504014228 | 68 | 281 | 0.0 | 1.0 | 0.00 | 0.00 | 0.00 | 52 | 1019.6 |
| 20260504013726 | 68 | 256 | 0.0 | 0.0 | 0.00 | 0.00 | 0.00 | 53 | 1019.5 |
| 20260504013224 | 67 | 252 | 0.0 | 0.0 | 0.00 | 0.00 | 0.00 | 52 | 1019.5 |
| 20260504012720 | 68 | 255 | 0.0 | 0.0 | 0.00 | 0.00 | 0.00 | 53 | 1019.4 |
| 20260504012218 | 68 | 255 | 0.0 | 0.0 | 0.00 | 0.00 | 0.00 | 52 | 1019.4 |
| 20260504011715 | 69 | 256 | 0.0 | 0.0 | 0.00 | 0.00 | 0.00 | 51 | 1019.3 |